Flag for U.S.A. Weather past 2 weeks in Honolulu, Hawaii, U.S.A.

Now
84 °F

Scattered clouds.


Feels Like: 88 °F
Forecast: 70 / 86 °F
Wind: 3 mph from Southwest

Location: Honolulu International Airport

Current Time: Sep 20, 2014 at 10:31:40 AM

Latest Report: Sep 20, 2014 at 9:53 AM


Visibility: 10 mi

Pressure: 29.95 "Hg

Humidity: 63%

Dew point: 70 °F

Location of HonoluluLocation

Historic Weather in Honolulu — Graph

°F

Honolulu temperature yesterday

Maximum temperature yesterday: 86 °F (at 12:53 PM)
Minimum temperature yesterday: 74 °F (at 4:53 AM)
Average temperature yesterday: 81 °F

Past Weeks' High & Low Weather Summary

 TemperatureHumidityPressure
High93 °F (Sep 7, 1:53 PM)97% (Sep 15, 5:53 AM)30.02 "Hg (Sep 15, 5:53 AM)
Low73 °F (Sep 14, 3:53 AM)34% (Sep 7, 12:53 PM)29.87 "Hg (Sep 15, 3:53 PM)
Average82 °F64%29.95 "Hg
* Reported Sep 5 8:53 AM — Sep 20 8:53 AM, Honolulu, Weather by CustomWeather, © 2014

Note: Actual official high and low records may vary slightly from our data, if they occured in-between our weather recording intervals... More about our weather records

Advertising

Honolulu weather history for previous 24 hours

 ConditionsComfort  
Time TempWeatherWind HumidityBarometerVisibility
8:53 AM
Sep 20
83 °FScattered clouds.6 mph63%29.95 "Hg10 mi
7:53 AM82 °FPassing clouds.3 mph65%29.93 "Hg10 mi
2:53 AM78 °FPassing clouds.5 mph76%29.89 "Hg10 mi
1:53 AM78 °FPassing clouds.No wind76%29.90 "Hg10 mi
12:53 AM79 °FPassing clouds.5 mph74%29.92 "Hg10 mi
11:53 PM
Sep 19
79 °FPassing clouds.5 mph77%29.93 "Hg10 mi
10:53 PM80 °FPassing clouds.3 mph74%29.95 "Hg10 mi
9:53 PM82 °FPassing clouds.5 mph70%29.95 "Hg10 mi
8:53 PM82 °FPassing clouds.7 mph70%29.95 "Hg10 mi
7:53 PM82 °FPartly cloudy.7 mph72%29.93 "Hg10 mi
6:53 PM83 °FPassing clouds.3 mph68%29.91 "Hg10 mi
5:53 PM84 °FScattered clouds.7 mph63%29.89 "Hg10 mi
4:53 PM85 °FBroken clouds.7 mph63%29.87 "Hg10 mi
3:53 PM86 °FBroken clouds.8 mph61%29.87 "Hg10 mi
2:53 PM86 °FBroken clouds.10 mph61%29.87 "Hg10 mi
1:53 PM86 °FScattered clouds.9 mph61%29.88 "Hg10 mi
12:53 PM86 °FScattered clouds.10 mph59%29.90 "Hg10 mi
11:53 AM85 °FScattered clouds.8 mph63%29.92 "Hg10 mi
10:53 AM85 °FScattered clouds.7 mph63%29.93 "Hg10 mi
Weather by CustomWeather, © 2014

See weather overviewHow to use our weather pages